{"data":{"norad_id":66206,"intl_designator":"2025-244A","name":"STARLINK-35748","alt_names":[],"object_type":"PAYLOAD","status":"ACTIVE","operator":null,"country":"US","launch_date":"2025-10-28","launch_site_code":"AFWTR","launch_vehicle":null,"mission":null,"orbit_class":"UNKNOWN","rcs_meters":null,"size_class":null,"mass_kg":null,"dimensions":null,"purposes":["comms"],"wikipedia_slug":null,"has_3d_model":false,"image_url":null,"decayed_at":null,"tle_current":{"epoch":"2026-05-24T17:30:09.745344Z","epoch_age_seconds":102459,"freshness":"FRESH","line1":"1 66206U 25244A   26144.72927946  .00026809  00000+0  80131-3 0  9990","line2":"2 66206  53.1588 236.5696 0001141  80.0865 280.0266 15.34417512 33309","mean_motion":15.34417512,"eccentricity":0.0001141,"inclination_deg":53.1588,"raan_deg":236.5696,"arg_perigee_deg":80.0865,"mean_anomaly_deg":280.0266,"bstar":0.00080131,"rev_number":3330,"period_min":93.846687015652,"perigee_km":461.87065741501,"apogee_km":463.43172528028,"semimajor_km":6840.7881913476,"source":"CELESTRAK","updated_at":"2026-05-25T13:38:21.126004Z"}}}